EW4022 Weather Reports


time (UTC)temp
C
wind
direction
speed
KPH
gust
KPH
rain 1hr
cm
rain 24hr
cm
rain mn
cm
humidity
%
barometer
mb
20260504050551 9 248 0.0 0.0 0.00 0.00 0.00 69 976.9
20260504045550 9 248 0.0 1.6 0.00 0.00 0.00 69 976.9
20260504045054 9 248 0.0 1.6 0.00 0.00 0.00 69 976.8
20260504044551 8 248 0.0 1.6 0.00 0.00 0.00 68 976.7
20260504044048 8 248 0.0 0.0 0.00 0.00 0.00 68 976.7
20260504043548 8 248 0.0 0.0 0.00 0.00 0.00 68 976.6
20260504043048 8 248 0.0 0.0 0.00 0.00 0.00 68 976.6
20260504042548 8 248 0.0 0.0 0.00 0.00 0.00 68 976.5
20260504042048 8 248 0.0 0.0 0.00 0.00 0.00 68 976.4
20260504041546 8 248 0.0 0.0 0.00 0.00 0.00 68 976.5
20260504041046 8 248 0.0 0.0 0.00 0.00 0.00 68 976.4
20260504040546 8 248 0.0 0.0 0.00 0.00 0.00 68 976.5
20260504040046 8 248 0.0 3.2 0.00 0.00 0.00 67 976.6
20260504035543 8 248 0.0 3.2 0.00 0.00 0.00 67 976.5
20260504035042 8 248 1.6 3.2 0.00 0.00 0.00 68 976.6
20260504034542 8 248 0.0 3.2 0.00 0.00 0.00 68 976.6
20260504034045 7 248 1.6 3.2 0.00 0.00 0.00 70 976.6
20260504033542 7 248 0.0 3.2 0.00 0.00 0.00 70 976.5
20260504033050 7 248 0.0 3.2 0.00 0.00 0.00 70 976.5
20260504032542 7 248 0.0 3.2 0.00 0.00 0.00 70 976.5
20260504032043 7 248 0.0 0.0 0.00 0.00 0.00 69 976.4
20260504031543 7 248 0.0 0.0 0.00 0.00 0.00 68 976.5
20260504031045 7 248 0.0 0.0 0.00 0.00 0.00 68 976.6
20260504030541 7 248 0.0 0.0 0.00 0.00 0.00 67 976.5
20260504030043 7 248 0.0 1.6 0.00 0.00 0.00 66 976.5
20260504025542 7 248 0.0 1.6 0.00 0.00 0.00 66 976.5
20260504025043 7 248 0.0 1.6 0.00 0.00 0.00 66 976.5
20260504024554 7 248 0.0 0.0 0.00 0.00 0.00 66 976.5
20260504024041 7 248 0.0 0.0 0.00 0.00 0.00 66 976.6
20260504023545 8 248 0.0 1.6 0.00 0.00 0.00 64 976.5
20260504023044 8 248 0.0 1.6 0.00 0.00 0.00 64 976.6
20260504022541 8 248 0.0 1.6 0.00 0.00 0.00 63 976.6
20260504022041 8 248 0.0 3.2 0.00 0.00 0.00 62 976.5
20260504021549 8 248 0.0 3.2 0.00 0.00 0.00 63 976.4
20260504021040 8 248 0.0 3.2 0.00 0.00 0.00 62 976.4
20260504020539 8 248 0.0 3.2 0.00 0.00 0.00 61 976.3
20260504020046 8 248 0.0 4.8 0.00 0.00 0.00 62 976.3
20260504015540 8 248 1.6 4.8 0.00 0.00 0.00 62 976.2
20260504015040 8 248 0.0 4.8 0.00 0.00 0.00 61 976.1
20260504014539 8 248 0.0 4.8 0.00 0.00 0.00 62 976.2
20260504014038 8 248 0.0 4.8 0.00 0.00 0.00 61 976.2
20260504013539 8 248 0.0 0.0 0.00 0.00 0.00 60 976.0
20260504013047 9 248 0.0 0.0 0.00 0.00 0.00 58 975.9
20260504012539 9 248 0.0 0.0 0.00 0.00 0.00 58 975.9
20260504012038 9 248 0.0 0.0 0.00 0.00 0.00 59 975.9
20260504011541 9 248 0.0 0.0 0.00 0.00 0.00 59 975.9
20260504011037 10 248 0.0 0.0 0.00 0.00 0.00 60 975.7
20260504010537 10 248 0.0 0.0 0.00 0.00 0.00 59 975.7
20260504010037 10 248 0.0 0.0 0.00 0.00 0.00 57 975.6
20260504005537 10 248 0.0 0.0 0.00 0.00 0.00 58 975.6
20260504005037 10 248 0.0 0.0 0.00 0.00 0.00 57 975.6
20260504004543 10 248 0.0 0.0 0.00 0.00 0.00 55 975.5
20260504004037 11 248 0.0 0.0 0.00 0.00 0.00 56 975.4
20260504003538 11 248 0.0 0.0 0.00 0.00 0.00 54 975.3
20260504003037 11 248 0.0 3.2 0.00 0.00 0.00 53 975.4
20260504002537 11 248 0.0 3.2 0.00 0.00 0.00 53 975.3
20260504002040 12 248 0.0 1.6 0.00 0.00 0.00 51 975.3
20260504001537 12 248 0.0 0.0 0.00 0.00 0.00 51 975.1
20260504001036 12 248 0.0 1.6 0.00 0.00 0.00 50 975.3
20260504000535 12 248 0.0 3.2 0.00 0.00 0.00 49 975.3
20260504000035 13 248 0.0 3.2 0.00 0.00 0.00 49 975.2
20260503235535 13 248 0.0 3.2 0.00 0.00 0.00 49 975.2
20260503235039 13 248 0.0 3.2 0.00 0.00 0.00 47 975.2
20260503234535 13 248 0.0 1.6 0.00 0.00 0.00 47 975.2
20260503234035 14 248 0.0 4.8 0.00 0.00 0.00 46 975.2
20260503233536 14 250 1.6 4.8 0.00 0.00 0.00 42 975.2
20260503233034 14 5 0.0 1.6 0.00 0.00 0.00 44 975.2
20260503232534 15 5 0.0 1.6 0.00 0.00 0.00 41 975.2
20260503232034 15 5 0.0 1.6 0.00 0.00 0.00 42 975.1
20260503231534 15 5 0.0 3.2 0.00 0.00 0.00 39 975.2
20260503231034 16 5 0.0 4.8 0.00 0.00 0.00 37 975.1
20260503230534 16 5 0.0 6.4 0.00 0.00 0.00 37 975.1
20260503230034 17 5 0.0 6.4 0.00 0.00 0.00 34 975.0
20260503225533 17 271 1.6 6.4 0.00 0.00 0.00 30 974.9
20260503225033 17 271 0.0 8.0 0.00 0.00 0.00 31 975.0
20260503224534 17 238 0.0 11.3 0.00 0.00 0.00 29 975.0
20260503224032 17 213 3.2 11.3 0.00 0.00 0.00 28 975.1
20260503223532 17 39 3.2 9.7 0.00 0.00 0.00 28 975.1
20260503223032 17 42 0.0 8.0 0.00 0.00 0.00 30 975.1
20260503222531 17 42 3.2 8.0 0.00 0.00 0.00 28 975.1
20260503222031 17 220 1.6 6.4 0.00 0.00 0.00 28 975.2
20260503221533 17 248 1.6 11.3 0.00 0.00 0.00 28 975.2
20260503221034 17 22 1.6 9.7 0.00 0.00 0.00 29 975.3
20260503220530 18 260 1.6 8.0 0.00 0.00 0.00 28 975.3
20260503220034 18 9 0.0 9.7 0.00 0.00 0.00 32 975.3
20260503215529 18 272 1.6 9.7 0.00 0.00 0.00 28 975.3
20260503215029 18 22 1.6 16.1 0.00 0.00 0.00 30 975.3
20260503214529 18 23 3.2 16.1 0.00 0.00 0.00 28 975.3
20260503214029 18 5 3.2 12.9 0.00 0.00 0.00 29 975.4
20260503213529 18 5 3.2 16.1 0.00 0.00 0.00 28 975.4
20260503213029 18 273 3.2 16.1 0.00 0.00 0.00 27 975.4
20260503212531 18 24 3.2 9.7 0.00 0.00 0.00 29 975.3
20260503212029 18 271 3.2 16.1 0.00 0.00 0.00 29 975.4
20260503211536 18 160 3.2 16.1 0.00 0.00 0.00 30 975.4
20260503211027 18 67 1.6 11.3 0.00 0.00 0.00 29 975.4
20260503210526 18 51 4.8 14.5 0.00 0.00 0.00 30 975.4
20260503210026 18 5 3.2 14.5 0.00 0.00 0.00 30 975.5
20260503205533 18 30 6.4 14.5 0.00 0.00 0.00 30 975.7
20260503205026 18 17 3.2 16.1 0.00 0.00 0.00 29 975.7
20260503204525 18 59 3.2 16.1 0.00 0.00 0.00 29 975.8
20260503204024 18 44 3.2 9.7 0.00 0.00 0.00 29 975.7
20260503203527 18 360 3.2 9.7 0.00 0.00 0.00 29 975.7
20260503203024 18 9 1.6 9.7 0.00 0.00 0.00 28 975.8
20260503202523 17 271 3.2 12.9 0.00 0.00 0.00 28 975.9
20260503202022 17 24 3.2 12.9 0.00 0.00 0.00 28 975.9
20260503201522 18 242 3.2 9.7 0.00 0.00 0.00 30 976.0
20260503201021 18 246 3.2 12.9 0.00 0.00 0.00 31 976.1
20260503200522 17 266 3.2 12.9 0.00 0.00 0.00 31 976.1
20260503200022 17 10 3.2 11.3 0.00 0.00 0.00 31 976.1
20260503195521 17 27 4.8 16.1 0.00 0.00 0.00 31 976.3
20260503195021 17 32 6.4 16.1 0.00 0.00 0.00 31 976.3
20260503194521 17 360 4.8 11.3 0.00 0.00 0.00 32 976.5
20260503194021 17 9 1.6 11.3 0.00 0.00 0.00 32 976.6
20260503193519 18 250 1.6 9.7 0.00 0.00 0.00 31 976.7
20260503193034 17 22 1.6 14.5 0.00 0.00 0.00 31 976.7
20260503192518 17 42 3.2 9.7 0.00 0.00 0.00 31 976.7
20260503192018 17 270 1.6 12.9 0.00 0.00 0.00 35 976.8
20260503191518 17 17 4.8 12.9 0.00 0.00 0.00 32 976.9
20260503191021 17 202 1.6 12.9 0.00 0.00 0.00 30 977.0
20260503190517 17 42 4.8 12.9 0.00 0.00 0.00 29 977.0
20260503190030 17 238 3.2 11.3 0.00 0.00 0.00 35 977.0
20260503185516 17 184 3.2 9.7 0.00 0.00 0.00 32 977.3
20260503185016 17 247 3.2 9.7 0.00 0.00 0.00 31 977.2
20260503184518 16 267 3.2 11.3 0.00 0.00 0.00 31 977.5
20260503184015 16 260 1.6 29.0 0.00 0.00 0.00 32 977.5
20260503183614 16 28 6.4 29.0 0.00 0.00 0.00 30 977.7
20260503183013 16 269 4.8 16.1 0.00 0.00 0.00 31 977.6
20260503182518 16 270 4.8 12.9 0.00 0.00 0.00 31 977.6
20260503182017 16 5 4.8 12.9 0.00 0.00 0.00 34 977.9
20260503181513 16 30 3.2 14.5 0.00 0.00 0.00 32 977.9
20260503181014 16 27 4.8 17.7 0.00 0.00 0.00 33 978.0
20260503180511 16 9 1.6 17.7 0.00 0.00 0.00 36 977.9
20260503180012 16 31 3.2 11.3 0.00 0.00 0.00 36 978.0
20260503175509 15 244 3.2 9.7 0.00 0.00 0.00 37 978.1
20260503175009 15 15 3.2 9.7 0.00 0.00 0.00 33 978.2
20260503174509 15 257 3.2 9.7 0.00 0.00 0.00 38 978.2
20260503174008 15 36 3.2 9.7 0.00 0.00 0.00 36 978.3
20260503173508 15 80 1.6 9.7 0.00 0.00 0.00 36 978.3
20260503173016 15 273 3.2 9.7 0.00 0.00 0.00 38 978.3
20260503172506 15 211 4.8 14.5 0.00 0.00 0.00 35 978.6
20260503172007 14 205 3.2 17.7 0.00 0.00 0.00 37 978.7
20260503171506 15 271 6.4 17.7 0.00 0.00 0.00 35 978.8
20260503171007 14 250 3.2 12.9 0.00 0.00 0.00 35 978.8
20260503170504 15 270 3.2 14.5 0.00 0.00 0.00 39 978.9
20260503160108 13 137 3.2 11.3 0.00 0.00 0.00 40 979.5
20260503150549 11 161 3.2 11.3 0.00 0.00 0.00 44 980.1
20260503131034 9 256 1.6 9.7 0.00 0.00 0.00 51 980.1
20260503130531 8 203 1.6 8.0 0.00 0.00 0.00 52 979.9
20260503110512 2 194 0.0 3.2 0.00 0.00 0.00 83 978.9
20260503100121 2 193 0.0 1.6 0.00 0.00 0.00 84 978.0
20260503081548 2 193 0.0 3.2 0.00 0.00 0.00 83 976.7
20260503081142 2 193 0.0 3.2 0.00 0.00 0.00 83 976.7
20260503080541 2 193 0.0 6.4 0.00 0.00 0.00 83 976.6
20260503072537 3 193 0.0 3.2 0.00 0.00 0.00 81 976.3
20260503072039 3 193 0.0 3.2 0.00 0.00 0.00 81 976.3
20260503071541 3 193 0.0 3.2 0.00 0.00 0.00 81 976.3
20260503071035 3 193 0.0 4.8 0.00 0.00 0.00 81 976.3
20260503070536 3 193 0.0 4.8 0.00 0.00 0.00 82 976.3